sat.trackr.live / text

‹ back to catalog

STARLINK-32177

NORAD 60441 · 2024-144S

PAYLOAD ACTIVE UNKNOWN

§ Identity

Operator
Country
US
Launch date
2024-08-12
Launch site
AFETR
Launch vehicle
Mass (kg)
RCS (m²)

Purposes: comms

External: N2YO · Heavens-Above · Gunter

§ Orbital elements

Epoch: 2026-09-21T16:31:04.623744Z

Period
93.85 min
Inclination
53.1600°
Eccentricity
0.0001010
Mean motion
15.34393900 rev/d
Perigee alt
462.0 km
Apogee alt
463.4 km
Semi-major
6,840.9 km
B*
-1.9411e-5
RAAN
22.0375°
Arg perigee
74.6720°
Mean anomaly
285.4394°
Rev number
11,938

§ Raw data

STARLINK-321771 60441U 24144S   26264.68824796 -.00001032  00000+0 -19411-4 0  99972 60441  53.1600  22.0375 0001010  74.6720 285.4394 15.34393900119383

JSON: /api/v1/satellites/60441 · /tle

For live sub-satellite position, see the globe view (requires WebGL).

§ Visibility from observer

Set your observer location to see the next 7 days of passes ≥ 10°. The values pass through the URL so the page stays shareable.

No JS? Fill the form by hand. The geolocation button needs JavaScript.